Regional Weather Roundup
Issued by NWS Albany, NY

Home | Current Version | Previous Version | Graphics & Text | Print | Product List | Glossary On
Versions: 1 2 3 4 5 6 7 8 9 10 11 12 13 14 15 16 17 18 19 20 21 22 23 24 25 26 27 28 29 30 31 32 33 34 35 36 37 38 39 40 41 42 43 44 45 46 47 48 49 50
000
ASUS41 KALY 282110
RWRALY

NEW YORK STATE HOURLY WEATHER ROUNDUP
NATIONAL WEATHER SERVICE ALBANY NY
500 PM EDT MON JUL 28 2014

NOTE: "FAIR" INDICATES FEW OR NO CLOUDS BELOW 12,000 FEET WITH NO
SIGNIFICANT WEATHER AND/OR NO OBSTRUCTIONS TO VISIBILITY.

NYZ032-033-038>043-046>054-057>066-NYZ062>081-282200-
EAST


CITY           SKY/WX    TMP DP  RH WIND       PRES   REMARKS
ALBANY         TSTM      67  64  90 CALM      29.48F FOG
GLENS FALLS    CLOUDY    71  65  81 E9        29.49R
POUGHKEEPSIE   MOSUNNY   74  61  63 SW9       29.51S
NEWBURGH       LGT RAIN  73  66  78 W12       29.54R
MONTGOMERY     MOSUNNY   73  64  73 SW8       29.53R
WHITE PLAINS   MOSUNNY   80  60  50 W15G22    29.53R
ISLIP          MOSUNNY   83  65  54 SW15G28   29.52S
NEW YORK CITY  PTSUNNY   83  58  42 W14G25    29.53R
CENTRAL PARK   MOSUNNY   80  59  48 W10G21    29.57R
$$

NYZ005>009-017-018-044>046-055-056-282200-
CENTRAL


CITY           SKY/WX    TMP DP  RH WIND       PRES   REMARKS
FULTON         LGT RAIN  62  58  86 N12       29.68R
SYRACUSE       LGT RAIN  61  60  97 NW13      29.66R
ROME           LGT RAIN  63  59  87 NW15G21   29.61R
ELMIRA         CLOUDY    63  59  87 N8        29.70R
BINGHAMTON     LGT RAIN  61  59  94 N18G25    29.65R FOG
MONTICELLO     PTSUNNY   64  63  94 W9        29.59R
$$

NYZ026>034-041>043-282200-
NORTH


CITY           SKY/WX    TMP DP  RH WIND       PRES   REMARKS
WATERTOWN      LGT RAIN  61  56  83 N13       29.68R
FORT DRUM      NOT AVBL
MASSENA        LGT RAIN  61  59  93 NW12      29.65R
SARANAC LAKE   LGT RAIN  57  56  96 N9G18     29.59S
PLATTSBURGH    LGT RAIN  63  61  93 N17       29.54S FOG
$$

NYZ001>004-010>016-019>021-282200-
WEST


CITY           SKY/WX    TMP DP  RH WIND       PRES   REMARKS
NIAGARA FALLS  PTSUNNY   67  54  63 NW16      29.78R
BUFFALO        CLOUDY    65  56  72 NE6       29.78R
DUNKIRK        CLOUDY    65  56  72 NW8       29.80S
JAMESTOWN      CLOUDY    57  55  94 N8        29.83R
WELLSVILLE     LGT RAIN  58  54  86 NW9       29.80R
ROCHESTER      CLOUDY    61  57  87 N7        29.76R
PENN YAN       CLOUDY    60  57  89 NW10G21   29.73R
$$

             KEY
       WCI = WIND CHILL INDEX
       VSB = VISIBILITY
       HX  = HEAT INDEX
$$


USA.gov is the U.S. government's official web portal to all federal, state and local government web resources and services.